Location: York
(31.8935°S, 116.7682°E)
Time: 15:11:47
(UTC+08:00)

DX 1 - Visible Passes

Search period start: 29 July 2021 00:00
Search period end: 08 August 2021 00:00
Orbit: 619 x 629 km, 98.4° (Epoch: 28 July)

Date Brightness Start Highest point End Pass type
(mag) Time Alt. Az. Time Alt. Az. Time Alt. Az.
29 Jul ? 18:20:36 10° ENE 18:24:04 24° ESE 18:27:35 10° SSE visible
29 Jul ? 19:56:36 10° NNW 20:00:04 23° W 20:03:34 10° SW visible
30 Jul ? 18:38:33 10° NE 18:42:35 38° ESE 18:46:39 10° S visible
30 Jul ? 20:16:31 10° NW 20:18:48 14° W 20:21:06 10° WSW visible
31 Jul ? 18:56:49 10° NNE 19:01:07 65° ESE 19:05:28 10° S visible
01 Aug ? 19:15:23 10° N 19:19:43 74° WNW 19:24:07 10° SSW visible
02 Aug ? 18:00:36 10° E 18:02:39 13° ESE 18:04:43 10° SE visible
02 Aug ? 19:34:13 10° N 19:38:21 43° W 19:42:32 10° SSW visible
03 Aug ? 18:17:49 10° ENE 18:21:06 21° ESE 18:24:24 10° SSE visible
03 Aug ? 19:53:24 10° NNW 19:57:02 26° W 20:00:42 10° SW visible
04 Aug ? 18:35:40 10° NE 18:39:35 34° ESE 18:43:32 10° S visible
04 Aug ? 20:13:07 10° NW 20:15:45 16° W 20:18:25 10° WSW visible
05 Aug ? 18:53:52 10° NNE 18:58:07 57° ESE 19:02:25 10° S visible
06 Aug ? 19:12:21 10° NNE 19:16:42 84° W 19:21:06 10° SSW visible
07 Aug ? 19:31:07 10° N 19:35:19 49° W 19:39:35 10° SSW visible
